Regional Weather Roundup
Issued by NWS Cleveland, OH

Current Version | Previous Version | Text Only | Print | Product List | Glossary On
Versions: 1 2 3 4 5 6 7 8 9 10 11 12 13 14 15 16 17 18 19 20 21 22 23 24 25 26 27 28 29 30 31 32 33 34 35 36 37 38 39 40 41 42 43 44 45 46 47 48 49 50
319 ASUS41 KCLE 271512 RWRCLE OHIO REGIONAL WEATHER ROUNDUP NATIONAL WEATHER SERVICE WILMINGTON, OH 1000 AM EST THU FEB 27 2020 NOTE: "FAIR" INDICATES FEW OR NO CLOUDS BELOW 12,000 FEET WITH NO SIGNIFICANT WEATHER AND/OR OBSTRUCTIONS TO VISIBILITY. OHZ001>008-015>018-024>027-034-035-043-044-271600- NORTHWEST OHIO CITY SKY/WX TMP DP RH WIND PRES REMARKS DEFIANCE CLOUDY 26 16 65 W9G22 29.99S WCI 17 FINDLAY LGT SNOW 25 20 81 W17G28 29.97S WCI 12 TOLEDO EXPRESS CLOUDY 26 13 57 W16G24 29.95S WCI 14 TOLEDO EXEC PTSUNNY 25 14 63 W20 29.96R WCI 11 LIMA CLOUDY 24 14 65 W23 29.99S WCI 9 $$ OHZ009>014-019>023-028>033-038-089-271600- NORTHEAST OHIO CITY SKY/WX TMP DP RH WIND PRES REMARKS CLE-HOPKINS FLURRIES 25 14 63 W15G25 29.92S WCI 13 CLE-LAKEFRONT CLOUDY 28 14 55 W30G39 29.89S WCI 12 CUY CO. ARPT FLURRIES 23 16 74 W22G37 29.87R WCI 8 LORAIN-ELYRIA CLOUDY 24 12 60 W15G25 29.93R WCI 11 ASHTABULA LGT SNOW 21 16 81 W21G29 29.84S VSB 3/4 WCI 5 AKRON-CANTON LGT SNOW 23 15 71 W13G30 29.89S WCI 11 WOOSTER CLOUDY 23 15 71 W15G24 29.92S WCI 10 MANSFIELD LGT SNOW 24 18 77 W12G23 29.93S VSB 3/4 WCI 13 YOUNGSTOWN LGT SNOW 22 15 75 W12G22 29.84S VSB 1 WCI 10 $$ OHZ042-051>053-060>062-070>072-077>081-271600- SOUTHWEST OHIO CITY SKY/WX TMP DP RH WIND PRES REMARKS CINC-COVINGTON CLOUDY 28 16 60 W15 30.11S WCI 16 CINC-LUNKEN CLOUDY 29 17 61 W15 30.14S WCI 18 HAMILTON CLOUDY 28 17 63 W14G22 30.12F WCI 17 DAYTON CLOUDY 26 15 63 W18 30.06S WCI 13 WRIGHT-PAT AFB CLOUDY 26 14 61 W14G22 30.06S WCI 14 DAYTON GENERAL CLOUDY 26 17 68 W15G23 30.07S WCI 14 WILMINGTON CLOUDY 25 14 63 W14 30.06F WCI 13 $$ OHZ036-037-039>041-045>050-054>059-063>069-073>076-082>088-271600- CENTRAL AND SOUTHEAST OHIO CITY SKY/WX TMP DP RH WIND PRES REMARKS COLUMBUS FLURRIES 26 16 65 W17 30.02F WCI 13 OSU AIRPORT CLOUDY 25 16 68 W17G26 30.01F WCI 12 BOLTON FIELD CLOUDY 25 18 74 W12G23 30.04S WCI 14 RICKENBACK AFB CLOUDY 26 17 71 W20G28 30.04S WCI 12 NEWARK LGT SNOW 26 20 77 W17G23 30.00S WCI 13 MARION LGT SNOW 24 17 74 W16G25 29.98S WCI 11 LANCASTER FLURRIES 26 19 74 W15G24 30.04S WCI 14 ZANESVILLE LGT SNOW 26 18 71 W21G28 29.99R WCI 12 NEW PHILLY CLOUDY 25 14 63 W14G25 29.95S WCI 13 $$

USA.gov is the U.S. government's official web portal to all federal, state and local government web resources and services.